CES6806 ZLLL-ZSSS

Flight info

Callsign CES6806
Flight time N/A
Altitude 31100
Route UKBIN W214 HO H14 P396 H131 ATGEN W283 SUDGO W4 UPSIK W282 NUGSA H11 ML W118 REVKU H48 FYG B208 HFE R343 PK
Aircraft A321/M-SDE3FGHIRWY/LB1

Departure

Time 2026-04-15 09:46
Airport Lanzhou Zhongchuan International Airport (ZLLL)

Arrival

Time N/A
Airport Shanghai Hongqiao International Airport (ZSSS)
Time Latitude Longitude Altitude Speed Heading
2026-04-15 09:30 36.52272 103.63779 6376 ft 0 kts 238°
2026-04-15 09:37 36.52275 103.63785 6369 ft 2 kts 238°
2026-04-15 09:37 36.52286 103.63806 6373 ft 3 kts 238°
2026-04-15 09:37 36.52296 103.63827 6366 ft 3 kts 238°
2026-04-15 09:38 36.52307 103.63848 6376 ft 3 kts 238°
2026-04-15 09:38 36.52317 103.63867 6361 ft 3 kts 223°
2026-04-15 09:38 36.52331 103.63878 6366 ft 3 kts 180°
2026-04-15 09:38 36.52351 103.63875 6370 ft 3 kts 162°
2026-04-15 09:39 36.52367 103.63868 6369 ft 1 kts 165°
2026-04-15 09:39 36.52370 103.63867 6368 ft 0 kts 165°
2026-04-15 09:40 36.52369 103.63867 6368 ft 1 kts 165°
2026-04-15 09:41 36.52344 103.63877 6371 ft 7 kts 158°
2026-04-15 09:41 36.52292 103.63920 6373 ft 11 kts 143°
2026-04-15 09:41 36.52236 103.64009 6372 ft 15 kts 123°
2026-04-15 09:41 36.52169 103.64115 6365 ft 16 kts 130°
2026-04-15 09:42 36.52154 103.64236 6374 ft 13 kts 86°
2026-04-15 09:42 36.52122 103.64331 6370 ft 14 kts 167°
2026-04-15 09:42 36.52008 103.64340 6366 ft 18 kts 177°
2026-04-15 09:42 36.51869 103.64349 6365 ft 22 kts 176°
2026-04-15 09:43 36.51709 103.64360 6363 ft 24 kts 177°
2026-04-15 09:43 36.51532 103.64370 6359 ft 27 kts 175°
2026-04-15 09:43 36.51349 103.64381 6358 ft 26 kts 180°
2026-04-15 09:43 36.51183 103.64394 6355 ft 24 kts 176°
2026-04-15 09:44 36.51012 103.64405 6355 ft 24 kts 177°
2026-04-15 09:44 36.50833 103.64416 6352 ft 27 kts 176°
2026-04-15 09:44 36.50651 103.64428 6349 ft 27 kts 177°
2026-04-15 09:44 36.50483 103.64438 6346 ft 24 kts 175°
2026-04-15 09:45 36.50371 103.64484 6341 ft 14 kts 105°
2026-04-15 09:45 36.50384 103.64615 6342 ft 17 kts 58°
2026-04-15 09:45 36.50490 103.64639 6345 ft 17 kts 358°
2026-04-15 09:45 36.50732 103.64623 6350 ft 65 kts 356°
2026-04-15 09:46 36.51398 103.64581 6360 ft 125 kts 357°
2026-04-15 09:46 36.52440 103.64511 6385 ft 173 kts 356°
2026-04-15 09:46 36.53697 103.64415 6843 ft 184 kts 356°
2026-04-15 09:46 36.54980 103.64450 7594 ft 187 kts 12°
2026-04-15 09:47 36.56228 103.65063 8003 ft 207 kts 26°
2026-04-15 09:47 36.57560 103.65997 8165 ft 227 kts 29°
2026-04-15 09:47 36.58979 103.67051 8322 ft 247 kts 29°
2026-04-15 09:47 36.60475 103.68157 8907 ft 252 kts 28°
2026-04-15 09:48 36.61995 103.69252 9638 ft 253 kts 28°
2026-04-15 09:48 36.63510 103.70315 10299 ft 254 kts 27°
2026-04-15 09:48 36.65066 103.71387 10926 ft 257 kts 26°
2026-04-15 09:48 36.66642 103.72465 11496 ft 261 kts 26°
2026-04-15 09:49 36.68153 103.73761 12038 ft 268 kts 40°
2026-04-15 09:49 36.69362 103.75651 12239 ft 292 kts 59°
2026-04-15 09:49 36.70015 103.78102 12645 ft 305 kts 81°
2026-04-15 09:49 36.69949 103.80773 13137 ft 314 kts 102°
2026-04-15 09:50 36.69119 103.83302 13664 ft 320 kts 124°
2026-04-15 09:50 36.67675 103.85420 14171 ft 322 kts 138°
2026-04-15 09:50 36.65885 103.87105 14648 ft 325 kts 152°
2026-04-15 09:50 36.63816 103.88227 15131 ft 325 kts 167°
2026-04-15 09:51 36.61594 103.88697 15618 ft 326 kts 179°
2026-04-15 09:51 36.59295 103.89110 15754 ft 345 kts 162°
2026-04-15 09:51 36.57216 103.90717 15880 ft 365 kts 135°
2026-04-15 09:51 36.55613 103.93260 16009 ft 381 kts 127°
2026-04-15 09:52 36.54007 103.95971 16136 ft 396 kts 127°
2026-04-15 09:52 36.52324 103.98755 16258 ft 409 kts 128°
2026-04-15 09:52 36.50565 104.01603 16384 ft 421 kts 128°
2026-04-15 09:52 36.48738 104.04517 16510 ft 432 kts 129°
2026-04-15 09:53 36.46857 104.07484 16635 ft 442 kts 129°
2026-04-15 09:53 36.44964 104.10463 16858 ft 448 kts 129°
2026-04-15 09:53 36.43026 104.13517 17228 ft 451 kts 129°
2026-04-15 09:53 36.41079 104.16595 17626 ft 454 kts 129°
2026-04-15 09:54 36.39126 104.19691 18021 ft 456 kts 129°
2026-04-15 09:54 36.37166 104.22802 18385 ft 458 kts 129°
2026-04-15 09:54 36.35199 104.25926 18718 ft 460 kts 129°
2026-04-15 09:54 36.33222 104.29062 19065 ft 462 kts 129°
2026-04-15 09:55 36.31233 104.32214 19418 ft 465 kts 129°
2026-04-15 09:55 36.29236 104.35373 19766 ft 467 kts 129°
2026-04-15 09:55 36.27222 104.38548 20093 ft 469 kts 129°
2026-04-15 09:55 36.25197 104.41731 20415 ft 471 kts 129°
2026-04-15 09:56 36.23159 104.44927 20724 ft 474 kts 129°
2026-04-15 09:56 36.21111 104.48140 21038 ft 476 kts 129°
2026-04-15 09:56 36.16984 104.54624 21616 ft 482 kts 129°
2026-04-15 09:57 36.14930 104.57852 21922 ft 484 kts 129°
2026-04-15 09:57 36.12844 104.61130 22219 ft 486 kts 129°
2026-04-15 09:57 36.10741 104.64427 22489 ft 489 kts 129°
2026-04-15 09:57 36.08627 104.67732 22760 ft 491 kts 130°
2026-04-15 09:58 36.06504 104.71039 23027 ft 492 kts 130°
2026-04-15 09:58 36.04370 104.74361 23269 ft 494 kts 130°
2026-04-15 09:58 36.02235 104.77690 23512 ft 495 kts 130°
2026-04-15 09:58 36.00092 104.81033 23714 ft 497 kts 130°
2026-04-15 09:59 35.98641 104.83295 23842 ft 497 kts 130°
2026-04-15 09:59 35.96490 104.86645 24028 ft 498 kts 130°
2026-04-15 09:59 35.93642 104.91070 24392 ft 496 kts 130°
2026-04-15 09:59 35.92190 104.93321 24581 ft 495 kts 131°
2026-04-15 10:00 35.90070 104.96660 24868 ft 495 kts 128°
2026-04-15 10:00 35.88226 105.00242 25143 ft 495 kts 123°
2026-04-15 10:00 35.86500 105.03838 25432 ft 493 kts 123°
2026-04-15 10:00 35.84757 105.07465 25732 ft 491 kts 123°
2026-04-15 10:01 35.83019 105.11078 26028 ft 490 kts 123°
2026-04-15 10:01 35.81277 105.14691 26320 ft 488 kts 123°
2026-04-15 10:01 35.79544 105.18279 26593 ft 487 kts 123°
2026-04-15 10:01 35.77813 105.21858 26885 ft 486 kts 123°
2026-04-15 10:02 35.76080 105.25428 27166 ft 485 kts 123°
2026-04-15 10:02 35.74347 105.28985 27448 ft 484 kts 123°
2026-04-15 10:02 35.72620 105.32527 27727 ft 483 kts 123°
2026-04-15 10:02 35.70897 105.36068 27999 ft 482 kts 123°
2026-04-15 10:03 35.69173 105.39617 28275 ft 481 kts 123°
2026-04-15 10:03 35.67455 105.43148 28540 ft 481 kts 123°
2026-04-15 10:03 35.65736 105.46674 28804 ft 481 kts 123°
2026-04-15 10:03 35.64016 105.50192 29068 ft 480 kts 123°
2026-04-15 10:04 35.62295 105.53709 29325 ft 480 kts 123°
2026-04-15 10:04 35.60578 105.57219 29565 ft 480 kts 123°
2026-04-15 10:04 35.58855 105.60737 29820 ft 480 kts 123°
2026-04-15 10:04 35.57130 105.64252 30052 ft 480 kts 123°
2026-04-15 10:05 35.55404 105.67769 30252 ft 480 kts 123°
2026-04-15 10:05 35.53866 105.71415 30427 ft 483 kts 115°
2026-04-15 10:05 35.52776 105.75334 30671 ft 487 kts 106°
2026-04-15 10:05 35.52114 105.79417 30932 ft 489 kts 102°
2026-04-15 10:06 35.51513 105.83526 31190 ft 489 kts 102°
2026-04-15 10:06 35.50900 105.87631 31402 ft 490 kts 102°
2026-04-15 10:06 35.50278 105.91745 31577 ft 490 kts 102°
2026-04-15 10:06 35.49655 105.95856 31766 ft 490 kts 102°
2026-04-15 10:07 35.49032 105.99970 31968 ft 491 kts 102°
2026-04-15 10:07 35.48410 106.04084 32175 ft 491 kts 102°
2026-04-15 10:07 35.47787 106.08212 32374 ft 491 kts 102°
2026-04-15 10:07 35.47163 106.12323 32573 ft 491 kts 102°
2026-04-15 10:08 35.46535 106.16444 32767 ft 491 kts 102°
2026-04-15 10:08 35.45907 106.20565 32904 ft 493 kts 102°
2026-04-15 10:08 35.45275 106.24724 32924 ft 497 kts 102°
2026-04-15 10:09 35.44002 106.33079 32924 ft 500 kts 102°
2026-04-15 10:09 35.42707 106.41479 32922 ft 502 kts 102°
2026-04-15 10:10 35.41401 106.49907 32917 ft 504 kts 103°
2026-04-15 10:10 35.40081 106.58369 32916 ft 505 kts 103°
2026-04-15 10:11 35.38755 106.66837 32920 ft 506 kts 103°
2026-04-15 10:11 35.37433 106.75262 32917 ft 507 kts 103°
2026-04-15 10:12 35.36100 106.83746 32921 ft 507 kts 102°
2026-04-15 10:12 35.34752 106.92233 32923 ft 508 kts 103°
2026-04-15 10:13 35.33394 107.00731 32928 ft 508 kts 103°
2026-04-15 10:13 35.32049 107.09230 32932 ft 509 kts 103°
2026-04-15 10:14 35.30697 107.17733 32933 ft 509 kts 103°
2026-04-15 10:14 35.29333 107.26237 32943 ft 509 kts 103°
2026-04-15 10:15 35.27957 107.34739 32940 ft 509 kts 103°
2026-04-15 10:15 35.26577 107.43242 32942 ft 509 kts 103°
2026-04-15 10:16 35.25191 107.51736 32939 ft 509 kts 103°
2026-04-15 10:16 35.23794 107.60222 32944 ft 509 kts 104°
2026-04-15 10:17 35.22368 107.68704 32944 ft 509 kts 105°
2026-04-15 10:17 35.19895 107.76640 32934 ft 500 kts 123°
2026-04-15 10:18 35.15783 107.83354 32927 ft 489 kts 139°
2026-04-15 10:18 35.11008 107.89285 32924 ft 490 kts 140°
2026-04-15 10:19 35.06231 107.95238 32930 ft 491 kts 139°
2026-04-15 10:19 35.01444 108.01193 32930 ft 492 kts 140°
2026-04-15 10:20 34.96648 108.07143 32945 ft 492 kts 140°
2026-04-15 10:20 34.91840 108.13095 32933 ft 493 kts 140°
2026-04-15 10:21 34.87023 108.19037 32931 ft 493 kts 140°
2026-04-15 10:21 34.82203 108.24984 32933 ft 494 kts 140°
2026-04-15 10:22 34.77375 108.30932 32926 ft 495 kts 140°
2026-04-15 10:22 34.72531 108.36886 32919 ft 495 kts 140°
2026-04-15 10:23 34.67717 108.42791 32920 ft 495 kts 140°
2026-04-15 10:23 34.63090 108.48309 32905 ft 492 kts 146°
2026-04-15 10:24 34.57417 108.52669 32895 ft 477 kts 163°
2026-04-15 10:24 34.51169 108.54965 32896 ft 466 kts 174°
2026-04-15 10:25 34.44845 108.56729 32900 ft 467 kts 174°
2026-04-15 10:25 34.38506 108.58519 32905 ft 468 kts 174°
2026-04-15 10:26 34.32163 108.60304 32911 ft 468 kts 174°
2026-04-15 10:26 34.25816 108.62075 32913 ft 468 kts 174°
2026-04-15 10:27 34.19466 108.63839 32916 ft 468 kts 174°
2026-04-15 10:27 34.13113 108.65608 32930 ft 468 kts 174°
2026-04-15 10:28 34.06892 108.68193 32941 ft 483 kts 158°
2026-04-15 10:28 34.01488 108.73200 32952 ft 501 kts 138°
2026-04-15 10:29 33.96929 108.79602 32958 ft 504 kts 136°
2026-04-15 10:29 33.92361 108.86008 32981 ft 504 kts 136°
2026-04-15 10:30 33.87781 108.92397 32984 ft 504 kts 136°
2026-04-15 10:30 33.83193 108.98789 32995 ft 505 kts 136°
2026-04-15 10:31 33.78610 109.05185 33020 ft 505 kts 136°
2026-04-15 10:31 33.74015 109.11576 33026 ft 505 kts 136°
2026-04-15 10:32 33.69418 109.17949 33034 ft 504 kts 136°
2026-04-15 10:32 33.64857 109.24274 33038 ft 504 kts 136°
2026-04-15 10:33 33.60238 109.30679 33036 ft 503 kts 136°
2026-04-15 10:33 33.55652 109.37010 33044 ft 502 kts 136°
2026-04-15 10:34 33.51065 109.43333 33044 ft 503 kts 136°
2026-04-15 10:34 33.46544 109.49724 33033 ft 506 kts 130°
2026-04-15 10:35 33.43378 109.57321 33034 ft 517 kts 109°
2026-04-15 10:35 33.42621 109.61542 33033 ft 520 kts 98°
2026-04-15 10:35 33.42453 109.65877 33030 ft 522 kts 88°
2026-04-15 10:36 33.43224 109.74474 33040 ft 523 kts 83°
2026-04-15 10:36 33.44052 109.83125 33045 ft 523 kts 84°
2026-04-15 10:37 33.44872 109.91782 33047 ft 523 kts 83°
2026-04-15 10:37 33.45704 110.00434 33049 ft 523 kts 83°
2026-04-15 10:38 33.46529 110.09085 33052 ft 523 kts 84°
2026-04-15 10:38 33.47340 110.17726 33054 ft 522 kts 84°
2026-04-15 10:39 33.48151 110.26363 33057 ft 521 kts 84°
2026-04-15 10:39 33.48951 110.34985 33056 ft 521 kts 84°
2026-04-15 10:40 33.49739 110.43609 33054 ft 520 kts 84°
2026-04-15 10:40 33.50517 110.52227 33055 ft 519 kts 84°
2026-04-15 10:41 33.51302 110.60827 33056 ft 519 kts 84°
2026-04-15 10:41 33.52074 110.69421 33055 ft 518 kts 84°
2026-04-15 10:42 33.52829 110.78015 33054 ft 518 kts 84°
2026-04-15 10:42 33.52711 110.86548 33047 ft 516 kts 101°
2026-04-15 10:43 33.50641 110.94704 33043 ft 511 kts 116°
2026-04-15 10:43 33.47823 111.02529 33046 ft 511 kts 116°
2026-04-15 10:44 33.45018 111.10360 33043 ft 512 kts 116°
2026-04-15 10:44 33.42202 111.18188 33041 ft 512 kts 116°
2026-04-15 10:45 33.39828 111.24761 33041 ft 512 kts 116°
2026-04-15 10:45 33.36536 111.33854 33047 ft 513 kts 116°
2026-04-15 10:46 33.34151 111.40402 33041 ft 513 kts 116°
2026-04-15 10:46 33.31297 111.48227 33042 ft 513 kts 116°
2026-04-15 10:47 33.28436 111.56045 33041 ft 513 kts 116°
2026-04-15 10:47 33.25585 111.63807 33043 ft 513 kts 116°
2026-04-15 10:48 33.22704 111.71621 33043 ft 513 kts 116°
2026-04-15 10:48 33.19834 111.79424 33041 ft 514 kts 116°
2026-04-15 10:49 33.18399 111.83324 33008 ft 512 kts 116°
2026-04-15 10:50 33.12084 112.00358 33041 ft 513 kts 116°
2026-04-15 10:50 33.08471 112.10069 33042 ft 512 kts 116°